KK7KHO Weather Reports


time (UTC)temp
C
wind
direction
speed
KPH
gust
KPH
rain 1hr
cm
rain 24hr
cm
rain mn
cm
humidity
%
barometer
mb
20260505035931 16 357 0.0 4.8 0.00 0.00 0.00 70 1009.3
20260505035427 16 297 1.6 4.8 0.00 0.00 0.00 69 1009.2
20260505034924 16 18 1.6 9.7 0.00 0.00 0.00 68 1009.2
20260505034420 16 14 4.8 6.4 0.00 0.00 0.00 68 1009.1
20260505033917 16 16 0.0 4.8 0.00 0.00 0.00 68 1009.2
20260505033414 16 20 1.6 3.2 0.00 0.00 0.00 68 1009.1
20260505032913 17 359 0.0 3.2 0.00 0.00 0.00 67 1009.1
20260505032409 17 32 0.0 6.4 0.00 0.00 0.00 67 1008.9
20260505031906 17 2 3.2 4.8 0.00 0.00 0.00 66 1009.0
20260505031403 17 353 3.2 4.8 0.00 0.00 0.00 66 1009.1
20260505030900 17 29 0.0 6.4 0.00 0.00 0.00 66 1008.9
20260505030355 17 16 0.0 3.2 0.00 0.00 0.00 66 1008.9
20260505025851 17 15 1.6 1.6 0.00 0.00 0.00 65 1008.7
20260505025349 18 5 3.2 3.2 0.00 0.00 0.00 65 1008.8
20260505024848 18 37 1.6 4.8 0.00 0.00 0.00 65 1008.8
20260505024345 18 10 0.0 4.8 0.00 0.00 0.00 64 1008.6
20260505023842 18 336 1.6 1.6 0.00 0.00 0.00 63 1008.7
20260505023338 18 359 0.0 4.8 0.00 0.00 0.00 62 1008.7
20260505022836 19 324 3.2 4.8 0.00 0.00 0.00 62 1008.5
20260505022333 20 354 6.4 9.7 0.00 0.00 0.00 61 1008.9
20260505021830 20 285 1.6 4.8 0.00 0.00 0.00 61 1008.8
20260505021327 21 309 1.6 4.8 0.00 0.00 0.00 58 1008.8
20260505020822 21 267 1.6 4.8 0.00 0.00 0.00 59 1008.6
20260505020318 21 88 0.0 3.2 0.00 0.00 0.00 59 1008.6
20260505015815 21 183 1.6 3.2 0.00 0.00 0.00 60 1008.6
20260505015312 22 206 6.4 6.4 0.00 0.00 0.00 58 1008.5
20260505014810 22 0 1.6 1.6 0.00 0.00 0.00 57 1008.5
20260505014307 22 358 3.2 4.8 0.00 0.00 0.00 56 1008.5
20260505013803 22 354 0.0 4.8 0.00 0.00 0.00 55 1008.6
20260505013300 22 289 0.0 6.4 0.00 0.00 0.00 54 1008.5
20260505012759 22 335 4.8 4.8 0.00 0.00 0.00 54 1008.4
20260505012256 23 350 0.0 6.4 0.00 0.00 0.00 53 1008.6
20260505011751 23 20 1.6 9.7 0.00 0.00 0.00 50 1008.6
20260505011248 24 344 0.0 1.6 0.00 0.00 0.00 48 1008.6
20260505010744 24 5 0.0 1.6 0.00 0.00 0.00 46 1008.6
20260505010240 24 288 1.6 4.8 0.00 0.00 0.00 49 1008.6
20260505005737 23 352 0.0 4.8 0.00 0.00 0.00 51 1008.5
20260505005234 23 0 3.2 4.8 0.00 0.00 0.00 49 1008.5
20260505004731 24 341 4.8 9.7 0.00 0.00 0.00 49 1008.2
20260505004228 25 256 1.6 4.8 0.00 0.00 0.00 49 1008.2
20260505003725 24 245 1.6 4.8 0.00 0.00 0.00 49 1008.4
20260505003223 24 347 1.6 4.8 0.00 0.00 0.00 49 1008.5
20260505002718 24 282 1.6 4.8 0.00 0.00 0.00 51 1008.4
20260505002216 25 13 4.8 4.8 0.00 0.00 0.00 49 1008.2
20260505001714 25 253 3.2 6.4 0.00 0.00 0.00 50 1008.4
20260505001211 25 277 3.2 4.8 0.00 0.00 0.00 49 1008.5
20260505000708 25 318 1.6 4.8 0.00 0.00 0.00 49 1008.4
20260505000206 26 14 1.6 3.2 0.00 0.00 0.00 48 1008.5
20260504235702 26 353 3.2 4.8 0.00 0.00 0.00 50 1008.5
20260504235158 26 358 0.0 1.6 0.00 0.00 0.00 52 1008.5
20260504234656 26 279 3.2 3.2 0.00 0.00 0.00 49 1008.5
20260504234153 26 11 1.6 4.8 0.00 0.00 0.00 46 1008.4
20260504233649 25 18 0.0 4.8 0.00 0.00 0.00 46 1008.7
20260504233144 26 30 1.6 6.4 0.00 0.00 0.00 46 1008.6
20260504232643 26 159 1.6 4.8 0.00 0.00 0.00 47 1008.5
20260504232139 26 7 3.2 4.8 0.00 0.00 0.00 46 1008.5
20260504231636 27 315 1.6 4.8 0.00 0.00 0.00 46 1008.4
20260504231127 26 355 0.0 3.2 0.00 0.00 0.00 48 1008.4
20260504230623 26 215 3.2 4.8 0.00 0.00 0.00 44 1008.4
20260504230122 26 263 1.6 3.2 0.00 0.00 0.00 46 1008.5
20260504225620 27 192 1.6 3.2 0.00 0.00 0.00 46 1008.5
20260504225116 27 21 0.0 3.2 0.00 0.00 0.00 46 1008.5
20260504224613 26 326 1.6 3.2 0.00 0.00 0.00 47 1008.7
20260504224110 26 41 0.0 3.2 0.00 0.00 0.00 46 1008.7
20260504223607 26 238 3.2 4.8 0.00 0.00 0.00 46 1008.7
20260504223102 27 233 3.2 3.2 0.00 0.00 0.00 45 1008.8
20260504222559 26 225 3.2 4.8 0.00 0.00 0.00 46 1008.8
20260504222056 26 356 0.0 4.8 0.00 0.00 0.00 48 1008.7
20260504221554 26 248 1.6 4.8 0.00 0.00 0.00 47 1008.8
20260504221050 26 252 1.6 3.2 0.00 0.00 0.00 47 1008.8
20260504220547 26 290 1.6 1.6 0.00 0.00 0.00 47 1009.0
20260504220044 26 53 0.0 6.4 0.00 0.00 0.00 45 1008.9
20260504215540 25 43 0.0 4.8 0.00 0.00 0.00 47 1008.9
20260504215038 26 183 3.2 4.8 0.00 0.00 0.00 46 1009.1
20260504214533 25 174 6.4 6.4 0.00 0.00 0.00 46 1009.1
20260504214030 26 283 4.8 4.8 0.00 0.00 0.00 46 1009.1
20260504213527 26 261 3.2 4.8 0.00 0.00 0.00 48 1009.2
20260504213024 26 310 1.6 4.8 0.00 0.00 0.00 48 1009.2
20260504212520 26 265 0.0 3.2 0.00 0.00 0.00 49 1009.2
20260504212017 26 6 0.0 3.2 0.00 0.00 0.00 51 1009.3
20260504211514 24 189 6.4 6.4 0.00 0.00 0.00 50 1009.3
20260504211012 25 48 1.6 4.8 0.00 0.00 0.00 50 1009.4
20260504210508 24 179 3.2 6.4 0.00 0.00 0.00 54 1009.5
20260504210005 25 109 3.2 4.8 0.00 0.00 0.00 51 1009.5
20260504205503 25 37 0.0 3.2 0.00 0.00 0.00 50 1009.4
20260504205001 25 250 1.6 1.6 0.00 0.00 0.00 52 1009.5
20260504204458 24 306 3.2 3.2 0.00 0.00 0.00 50 1009.5
20260504203957 23 158 1.6 3.2 0.00 0.00 0.00 54 1009.5
20260504203455 24 353 0.0 4.8 0.00 0.00 0.00 50 1009.5
20260504202951 23 192 3.2 3.2 0.00 0.00 0.00 51 1009.6
20260504202447 23 192 3.2 6.4 0.00 0.00 0.00 52 1009.6
20260504201944 23 187 3.2 6.4 0.00 0.00 0.00 53 1009.6
20260504201441 24 190 1.6 3.2 0.00 0.00 0.00 53 1009.7
20260504200939 24 163 3.2 4.8 0.00 0.00 0.00 51 1009.7
20260504200436 23 97 0.0 6.4 0.00 0.00 0.00 54 1009.8
20260504195932 23 199 3.2 4.8 0.00 0.00 0.00 52 1009.7
20260504195428 25 175 3.2 4.8 0.00 0.00 0.00 50 1009.8
20260504194925 23 239 3.2 4.8 0.00 0.00 0.00 52 1009.7
20260504194421 24 5 1.6 3.2 0.00 0.00 0.00 54 1009.7
20260504193917 23 190 3.2 4.8 0.00 0.00 0.00 53 1009.6
20260504193414 24 351 0.0 3.2 0.00 0.00 0.00 51 1009.7
20260504192913 23 35 0.0 3.2 0.00 0.00 0.00 58 1009.7
20260504192410 23 307 1.6 4.8 0.00 0.00 0.00 55 1009.6
20260504191909 23 8 0.0 4.8 0.00 0.00 0.00 58 1009.7
20260504191406 22 7 1.6 3.2 0.00 0.00 0.00 59 1009.6
20260504190901 23 194 3.2 4.8 0.00 0.00 0.00 58 1009.6
20260504190357 22 234 3.2 3.2 0.00 0.00 0.00 56 1009.7
20260504185854 22 80 1.6 3.2 0.00 0.00 0.00 59 1009.9
20260504185351 22 217 1.6 6.4 0.00 0.00 0.00 58 1009.9
20260504184847 22 225 1.6 1.6 0.00 0.00 0.00 63 1009.9
20260504184343 21 327 1.6 3.2 0.00 0.00 0.00 62 1009.9
20260504183839 21 63 0.0 3.2 0.00 0.00 0.00 63 1009.8
20260504183337 21 115 1.6 3.2 0.00 0.00 0.00 65 1009.9
20260504182834 22 359 1.6 3.2 0.00 0.00 0.00 62 1009.9
20260504182332 21 351 0.0 1.6 0.00 0.00 0.00 62 1009.8
20260504181828 22 217 3.2 4.8 0.00 0.00 0.00 59 1009.8
20260504181326 22 38 0.0 1.6 0.00 0.00 0.00 58 1010.1
20260504180825 22 5 0.0 3.2 0.00 0.00 0.00 56 1009.8
20260504180323 22 254 1.6 3.2 0.00 0.00 0.00 58 1010.0
20260504175820 22 58 0.0 1.6 0.00 0.00 0.00 56 1010.0
20260504175317 20 343 0.0 3.2 0.00 0.00 0.00 59 1009.7
20260504174815 21 175 3.2 4.8 0.00 0.00 0.00 61 1009.9
20260504174312 21 145 1.6 1.6 0.00 0.00 0.00 59 1010.0
20260504173809 20 280 3.2 3.2 0.00 0.00 0.00 58 1010.0
20260504173306 21 330 0.0 1.6 0.00 0.00 0.00 60 1009.9
20260504172803 21 89 1.6 3.2 0.00 0.00 0.00 65 1010.0
20260504172259 21 204 1.6 4.8 0.00 0.00 0.00 67 1009.9
20260504171755 21 188 3.2 4.8 0.00 0.00 0.00 67 1009.9
20260504171253 21 341 1.6 1.6 0.00 0.00 0.00 67 1009.9
20260504170750 20 243 1.6 3.2 0.00 0.00 0.00 65 1010.0
20260504170247 21 43 0.0 3.2 0.00 0.00 0.00 64 1010.0
20260504160205 18 327 1.6 3.2 0.00 0.00 0.00 76 1010.1
20260504151133 16 117 0.0 1.6 0.00 0.00 0.00 78 1009.8
20260504150630 16 66 0.0 0.0 0.00 0.00 0.00 76 1009.7
20260504150127 15 65 0.0 0.0 0.00 0.00 0.00 78 1009.8
20260504141056 12 63 0.0 0.0 0.00 0.00 0.00 86 1009.2
20260504140552 11 63 0.0 0.0 0.00 0.00 0.00 90 1009.3
20260504130511 11 47 0.0 0.0 0.00 0.00 0.00 91 1008.6
20260504110358 12 53 1.6 4.8 0.00 0.00 0.00 84 1008.6
20260504100315 12 59 1.6 3.2 0.00 0.00 0.00 82 1008.8
20260504081709 12 40 1.6 3.2 0.00 0.00 0.00 79 1008.7
20260504081205 12 54 1.6 1.6 0.00 0.00 0.00 81 1008.7
20260504080701 12 60 1.6 3.2 0.00 0.00 0.00 78 1008.5
20260504080158 12 60 0.0 3.2 0.00 0.00 0.00 79 1008.5
20260504070126 12 55 0.0 1.6 0.00 0.00 0.00 79 1008.6
20260504050514 15 355 0.0 1.6 0.00 0.00 0.00 72 1008.5
20260504050012 15 355 0.0 1.6 0.00 0.00 0.00 71 1008.8
20260504045508 15 355 0.0 1.6 0.00 0.00 0.00 70 1008.6
20260504045003 15 355 0.0 0.0 0.00 0.00 0.00 71 1008.6
20260504044501 15 355 0.0 0.0 0.00 0.00 0.00 72 1008.7
20260504043958 16 355 1.6 1.6 0.00 0.00 0.00 71 1008.8
20260504043455 16 355 0.0 0.0 0.00 0.00 0.00 70 1008.8
20260504042953 16 355 0.0 1.6 0.00 0.00 0.00 70 1008.8
20260504042449 16 355 0.0 0.0 0.00 0.00 0.00 70 1008.6
20260504041946 16 355 0.0 0.0 0.00 0.00 0.00 69 1008.7
20260504041442 16 355 0.0 0.0 0.00 0.00 0.00 70 1008.6
20260504040938 16 355 0.0 0.0 0.00 0.00 0.00 68 1008.7
20260504040436 17 355 0.0 0.0 0.00 0.00 0.00 67 1008.6